Tracking 19794 objects as of 21-Jul-2019
HD Live streaming from Space Station
objects crossing your sky now

IUS R/B(1)

Track IUS R/B(1) now!


NORAD ID: 19549
Int'l Code: 1988-091C
Perigee: 311.2 km
Apogee: 29,973.1 km
Inclination: 26.7 °
Period: 523.4 minutes
Semi major axis: 21513 km
RCS: 12.0384 m2 (large)
Launch date: September 29, 1988
Source: United States (US)
Launch site: AIR FORCE EASTERN TEST RANGE (AFETR)

Note: This is a ROCKET BODY
aabbcc
Your satellite tracking list
Your tracking list is empty




NASA's NSSDC Master Catalog

Two Line Element Set (TLE):
1 19549U 88091C   19201.48192966 -.00000399 +00000-0 +74849-4 0  9990
2 19549 026.7084 021.6543 6893902 348.4168 001.4586 02.75135620285515
Source of the keplerian elements: AFSPC